Wetbulb
64.75 65.33 65.89 65.89 64.95 65.23 65.83 66.56 67.01 67.85 67.72 67.54 68.54 68.98 68.38 68.54 68.97 69.29 69.59 69.58 69.63 70.01 71.13 72.49 73.72 73.60 73.20 72.78 73.07 72.60 72.14 72.49 73.28
62.57 63.54 64.93 65.37 65.92 65.71 65.74 66.01 66.48 67.61 67.97 67.95 68.54 68.94 68.80 67.73 68.08 68.54 68.83 69.73 70.57 70.49 71.78 72.59 73.54 73.28 73.32 73.28 73.24 73.06 73.01 72.30 72.20
60.56 62.89 62.96 64.54 65.70 65.33 66.21 66.40 66.65 68.28 68.56 68.22 68.61 69.17 69.12 68.63 68.17 68.43 68.98 69.58 70.04 70.89 71.66 72.67 73.50 73.54 73.40 73.40 73.86 72.86 73.02 72.36 72.37
57.95 63.04 64.21 65.05 65.66 65.37 66.42 66.82 66.58 67.48 68.64 68.45 68.41 69.22 69.27 69.22 68.89 68.11 68.16 68.78 70.04 71.22 72.03 72.21 72.67 73.48 73.48 73.19 73.16 73.78 73.15 72.91 72.51
61.76 61.93 63.89 65.52 65.90 65.85 65.59 66.21 66.74 66.66 67.99 68.36 68.75 69.11 69.29 68.85 69.18 69.86 68.46 68.14 68.93 70.10 70.79 71.85 72.71 72.88 73.50 73.18 73.03 72.86 73.28 72.91 73.15
52.91 57.37 60.30 61.26 63.17 64.60 65.60 66.25 66.56 66.86 67.48 68.49 68.98 69.12 69.12 68.95 68.29 68.62 69.65 69.44 68.84 69.11 69.55 69.93 70.81 72.10 72.50 73.18 73.32 73.28 73.42 73.37 73.35
50.89 51.45 52.26 54.36 56.95 60.10 64.80 65.48 65.94 66.73 67.29 68.00 69.09 69.00 68.70 68.58 68.34 68.10 68.76 69.67 70.01 68.96 69.37 69.45 69.70 71.35 72.14 73.07 73.35 73.51 73.51 73.06 73.10
47.31 47.79 49.92 50.98 52.14 53.75 54.80 60.72 66.44 66.86 65.79 67.90 68.51 68.69 68.87 68.56 68.92 69.12 68.81 68.77 69.33 70.11 69.35 69.47 69.72 69.93 72.10 73.31 73.54 73.23 73.43 73.63 73.11
45.17 46.00 47.16 49.04 50.22 52.27 52.73 56.16 59.12 65.32 66.10 65.57 68.33 68.20 68.40 69.83 69.90 69.70 68.87 68.57 68.61 69.19 69.77 69.45 68.87 69.18 70.24 71.78 72.78 68.58 67.85 71.92 73.44
43.92 44.81 46.29 46.87 48.56 50.35 51.63 53.86 58.03 62.59 65.86 67.56 66.61 68.04 68.68 69.00 70.14 70.01 69.83 69.48 68.75 68.35 68.59 69.64 69.10 68.55 69.11 70.20 71.67 65.71 66.00 67.65 73.75
42.59 43.57 44.92 45.97 47.25 49.25 50.58 52.78 58.18 64.35 67.04 67.11 66.82 67.66 69.20 69.42 69.40 69.67 70.07 70.29 69.14 68.57 68.68 68.61 68.63 69.17 69.24 69.41 70.12 64.38 64.11 66.26 72.55
42.66 43.29 44.77 46.11 47.67 49.10 50.17 52.64 58.64 63.60 65.66 66.49 67.40 67.33 68.28 70.37 69.72 69.46 69.70 69.81 70.16 69.81 68.92 68.50 68.78 68.94 68.99 69.30 69.89 62.18 62.20 64.82 71.45
42.82 44.06 45.04 45.74 47.25 48.32 49.03 50.89 57.40 61.07 62.20 65.37 65.73 67.31 67.87 68.32 69.17 70.94 70.08 69.61 70.29 70.87 70.71 69.51 69.41 69.27 68.95 66.44 69.45 61.61 60.40 63.15 70.81
43.60 44.19 45.59 47.08 47.16 46.86 47.90 50.27 53.50 57.94 59.82 62.12 66.87 68.61 68.33 67.46 67.35 68.12 71.69 71.70 71.27 71.26 71.07 71.10 70.18 69.56 69.92 68.99 67.74 68.60 58.67 59.10 70.85
42.62 43.98 46.53 47.23 46.10 46.17 47.71 49.58 51.41 55.09 58.55 62.69 66.35 65.82 66.51 67.18 67.33 67.17 68.91 69.87 72.07 71.80 71.03 70.43 70.34 70.29 70.36 70.54 69.63 62.03 58.91 57.53 60.32
43.25 45.52 46.86 46.79 45.63 46.08 47.72 49.40 50.83 52.86 57.57 63.91 63.89 64.47 63.94 64.25 66.04 68.21 68.07 68.00 68.62 71.34 71.71 70.82 70.29 70.15 70.09 70.75 71.92 70.76 59.37 57.02 57.38
43.88 45.90 46.69 46.88 46.69 46.64 47.32 49.53 51.02 52.44 56.68 61.86 61.99 61.44 62.09 63.37 63.64 64.14 66.80 69.52 68.27 68.20 70.88 70.86 70.82 70.33 70.32 70.79 71.40 71.99 72.28 66.88 63.01
43.93 44.88 46.59 47.44 46.65 46.47 47.66 49.96 50.71 51.84 54.95 59.83 59.49 58.83 60.20 62.10 62.98 63.56 64.31 67.96 70.01 70.55 69.68 69.87 71.53 71.52 71.67 70.86 70.56 71.45 67.60 67.72 69.96
43.03 43.97 45.89 46.15 46.26 46.45 47.32 48.92 50.27 51.77 54.67 58.22 56.85 56.64 57.80 59.44 61.58 62.06 63.42 64.22 66.58 58.69 56.64 52.33 52.12 56.68 66.91 72.10 64.09 57.28 54.34 53.26 52.17
43.74 44.25 44.55 45.15 45.41 46.47 46.91 47.96 51.45 52.67 56.00 55.74 54.26 53.74 54.99 56.72 56.91 59.61 61.20 62.47 63.69 65.02 66.08 52.35 49.63 48.18 49.27 53.24 62.48 51.99 52.17 50.17 49.27
MSLP
1009.38 1009.61 1009.99 1010.41 1010.85 1011.57 1012.30 1012.96 1013.67 1014.41 1015.11 1015.77 1016.40 1016.97 1017.51 1017.97 1018.26 1018.64 1018.87 1019.10 1019.39 1019.73 1020.03 1020.05 1020.21 1020.71 1021.01 1021.38 1021.67 1021.98 1022.31 1022.46 1022.73
1009.03 1009.05 1009.13 1009.74 1010.33 1011.01 1011.77 1012.44 1013.05 1013.70 1014.49 1015.12 1015.85 1016.18 1016.87 1017.49 1017.89 1018.25 1018.53 1018.74 1019.04 1019.20 1019.43 1019.54 1019.94 1020.46 1020.77 1021.07 1021.45 1021.79 1022.18 1022.48 1022.69
1009.51 1009.11 1009.29 1009.71 1010.18 1010.73 1011.39 1012.03 1012.62 1013.27 1013.84 1014.35 1014.99 1015.59 1016.21 1016.78 1017.25 1017.66 1017.90 1018.25 1018.71 1018.97 1019.09 1019.21 1019.59 1020.05 1020.41 1020.73 1021.10 1021.45 1021.83 1022.22 1022.36
1009.59 1009.54 1009.75 1010.25 1010.51 1010.81 1011.23 1011.79 1012.55 1013.08 1013.64 1014.17 1014.73 1015.50 1015.80 1016.36 1016.82 1017.30 1017.64 1017.78 1018.07 1018.40 1018.75 1019.06 1019.38 1019.80 1020.18 1020.43 1020.76 1021.00 1021.43 1021.78 1022.12
1011.32 1010.99 1010.86 1010.85 1011.10 1011.53 1011.79 1012.08 1012.44 1012.78 1013.38 1013.88 1014.07 1014.54 1015.26 1015.64 1016.03 1016.77 1017.25 1017.34 1017.57 1017.89 1018.22 1018.46 1018.87 1019.35 1019.79 1020.07 1020.37 1020.72 1021.15 1021.46 1021.71
1013.55 1013.05 1012.95 1012.85 1012.57 1012.48 1012.64 1012.66 1012.82 1013.06 1013.35 1013.61 1013.77 1014.19 1014.69 1015.21 1015.64 1016.12 1016.61 1016.97 1017.12 1017.30 1017.71 1018.00 1018.30 1018.81 1019.23 1019.58 1019.87 1020.27 1020.62 1020.96 1021.21
1015.54 1015.07 1014.96 1014.66 1014.33 1014.21 1013.85 1013.41 1013.25 1013.27 1013.11 1013.11 1013.35 1013.71 1014.21 1014.61 1014.92 1015.23 1015.64 1016.03 1016.54 1016.92 1017.06 1017.47 1017.71 1018.09 1018.46 1018.89 1019.28 1019.61 1020.00 1020.42 1020.76
1017.20 1016.75 1016.41 1015.98 1015.71 1015.38 1014.92 1014.53 1013.91 1013.47 1013.09 1012.87 1012.59 1012.79 1013.18 1013.36 1013.87 1014.42 1014.92 1015.50 1015.79 1016.10 1016.66 1016.81 1016.95 1017.34 1017.79 1018.17 1018.63 1019.02 1019.37 1019.73 1020.02
1018.73 1018.42 1017.88 1017.20 1016.54 1015.92 1015.51 1015.27 1014.81 1013.86 1013.29 1012.64 1012.32 1012.27 1012.41 1012.74 1013.18 1013.59 1014.01 1014.49 1015.05 1015.43 1015.79 1016.29 1016.59 1016.71 1016.92 1017.31 1017.75 1018.12 1018.58 1018.94 1019.35
1019.94 1019.51 1019.00 1018.38 1017.74 1017.05 1016.16 1015.77 1015.22 1014.33 1013.41 1012.59 1011.90 1011.78 1012.03 1012.29 1012.55 1012.89 1013.20 1013.63 1014.26 1014.63 1014.88 1015.39 1015.90 1016.14 1016.36 1016.47 1016.73 1017.15 1017.59 1018.10 1018.58
1020.70 1020.41 1019.67 1018.85 1018.47 1017.75 1016.89 1016.23 1015.63 1014.53 1013.65 1012.67 1011.97 1011.61 1011.81 1012.15 1012.30 1012.47 1012.67 1013.12 1013.44 1013.71 1014.04 1014.38 1014.77 1015.23 1015.60 1015.84 1015.94 1016.23 1016.63 1017.09 1017.61
1021.26 1020.85 1020.38 1019.55 1018.77 1018.16 1017.27 1016.28 1015.52 1014.81 1013.68 1012.72 1012.27 1011.44 1011.76 1011.80 1011.82 1012.01 1012.15 1012.41 1012.46 1012.73 1013.31 1013.59 1013.75 1014.11 1014.67 1015.09 1015.14 1015.35 1015.72 1016.39 1016.92
1020.73 1020.91 1020.49 1019.62 1018.58 1017.89 1017.15 1016.23 1015.48 1014.51 1013.81 1012.78 1012.23 1012.15 1011.90 1011.71 1011.47 1011.42 1011.42 1011.54 1011.69 1011.99 1012.44 1012.59 1012.94 1013.10 1013.43 1013.67 1014.13 1014.45 1014.69 1015.38 1015.97
1020.96 1020.47 1019.72 1019.37 1018.62 1017.57 1016.92 1016.24 1015.22 1014.60 1013.71 1011.68 1013.15 1012.59 1011.96 1011.76 1011.40 1011.17 1010.67 1010.82 1011.15 1011.33 1011.69 1012.03 1012.21 1012.39 1012.48 1012.87 1013.07 1013.38 1013.59 1014.02 1014.84
1020.53 1019.76 1019.23 1018.94 1018.30 1017.32 1016.39 1016.21 1015.75 1014.59 1013.67 1013.59 1013.18 1012.52 1011.89 1011.54 1011.32 1011.01 1010.82 1010.53 1010.33 1010.53 1010.88 1011.19 1011.33 1011.53 1011.68 1011.78 1012.04 1012.27 1012.61 1012.81 1013.23
1020.13 1019.54 1018.77 1018.49 1017.87 1016.89 1016.01 1015.49 1015.34 1014.61 1013.59 1013.00 1012.71 1012.07 1011.25 1011.15 1011.08 1010.61 1010.61 1010.38 1010.19 1010.02 1010.10 1010.05 1010.08 1010.32 1010.41 1010.48 1010.89 1011.21 1011.37 1011.80 1012.07
1019.63 1019.11 1018.37 1017.94 1017.49 1016.69 1015.59 1015.16 1014.36 1013.73 1013.36 1012.80 1012.39 1011.88 1011.22 1010.61 1010.43 1010.61 1010.36 1009.66 1009.58 1009.53 1009.12 1008.92 1008.87 1008.97 1008.99 1009.18 1009.67 1010.02 1010.21 1010.91 1011.69
1019.21 1018.67 1018.02 1017.52 1016.85 1016.20 1015.38 1014.59 1013.74 1013.09 1012.75 1012.08 1011.83 1011.72 1011.31 1010.66 1010.17 1010.09 1009.93 1009.41 1008.92 1008.34 1007.91 1007.58 1007.53 1007.41 1007.61 1008.00 1008.18 1008.30 1008.85 1009.33 1010.18
1019.00 1018.15 1017.52 1017.05 1016.35 1015.51 1014.88 1013.80 1013.00 1012.29 1011.94 1011.43 1011.35 1011.47 1010.89 1010.24 1009.97 1009.67 1009.63 1009.10 1008.20 1007.42 1007.10 1006.99 1006.90 1006.53 1006.76 1006.69 1006.71 1007.48 1007.96 1008.30 1009.21
1018.40 1017.62 1017.00 1016.46 1015.90 1015.15 1014.29 1013.30 1011.85 1011.30 1010.90 1010.94 1010.91 1010.31 1010.46 1010.14 1009.91 1009.39 1009.19 1008.90 1008.11 1007.00 1006.38 1006.41 1006.19 1006.07 1006.25 1006.01 1006.06 1006.55 1007.08 1007.50 1008.27
Wind_Speed
13 15 14 16 14 16 16 17 17 16 15 14 13 13 12 9 8 6 5 6 4 5 5 4 5 4 4 5 4 4 4 2 2
13 16 17 14 14 15 15 16 17 18 16 15 14 15 12 10 9 8 8 7 5 4 5 4 5 6 5 5 5 5 4 3 4
8 10 13 13 10 14 13 13 15 16 16 18 16 15 13 11 11 10 9 7 7 6 5 5 5 6 6 6 5 5 5 4 3
5 7 6 5 6 7 10 11 12 13 14 15 13 12 11 10 9 9 7 9 9 8 5 6 6 6 6 7 7 6 5 5 4
18 14 10 6 6 6 3 4 6 11 13 13 13 13 12 12 11 10 10 10 10 9 9 6 7 7 7 7 7 7 8 7 6
16 17 17 13 11 8 4 5 4 5 5 9 10 9 11 10 9 11 12 11 9 10 9 9 7 7 8 8 8 8 9 9 8
17 17 16 14 15 11 6 5 3 4 8 9 10 10 11 12 12 12 13 12 11 11 11 10 10 10 9 8 8 8 8 9 9
16 17 16 15 13 11 12 11 6 4 5 10 12 14 15 16 14 12 11 10 10 11 10 11 11 10 10 9 8 8 9 9 10
13 13 16 14 14 14 13 10 12 9 5 6 10 14 16 14 13 13 13 12 11 10 12 12 10 11 12 11 9 12 14 11 9
10 12 12 13 13 11 13 13 12 12 10 6 5 8 12 13 14 13 13 12 11 12 13 11 12 12 12 13 13 15 16 16 9
9 12 14 14 11 13 13 13 11 11 10 9 4 3 8 10 11 12 12 12 13 13 12 12 12 13 13 13 12 15 18 18 13
10 12 12 12 13 13 15 15 10 10 10 9 7 4 4 8 11 13 12 14 14 13 11 11 12 11 12 14 14 17 18 14 12
19 14 13 16 17 15 14 13 13 11 11 9 9 7 6 7 6 11 13 15 13 11 10 12 9 12 12 15 15 15 19 16 11
17 17 19 15 16 15 15 13 13 12 12 10 8 7 5 6 5 7 10 11 10 10 11 10 11 11 11 13 14 14 19 20 14
19 19 16 16 14 15 15 13 10 13 11 12 8 7 4 5 6 6 6 6 11 11 11 11 12 11 10 10 13 16 16 20 23
17 19 16 12 13 15 15 15 11 13 13 10 8 8 5 5 7 7 7 8 7 9 12 12 12 11 11 11 10 11 18 20 21
14 16 13 12 13 16 19 15 16 14 14 8 7 7 9 4 4 7 8 7 7 9 11 11 12 12 12 11 10 10 10 11 10
15 14 13 13 16 17 19 19 19 17 14 9 8 7 8 7 5 6 8 8 8 10 13 13 12 13 12 12 12 12 13 12 11
15 15 13 12 15 16 16 18 19 19 15 8 7 8 8 6 5 5 6 7 8 12 14 11 16 14 14 11 13 14 16 16 13
17 15 14 13 15 16 16 17 19 16 14 6 7 6 8 7 7 7 7 6 7 7 8 12 12 13 15 15 11 15 18 16 15
Wind_Direction
199 197 196 199 184 186 184 184 185 187 186 191 185 191 198 197 182 181 181 178 173 185 196 205 171 189 193 187 180 172 179 166 189
200 201 198 187 184 186 186 187 187 187 189 195 192 194 195 194 185 181 190 183 178 179 191 196 181 182 194 190 190 175 173 195 202
250 203 197 197 191 185 189 189 189 190 193 194 196 194 192 197 195 195 189 172 183 191 195 195 176 185 191 191 193 183 182 183 192
279 185 189 183 185 186 183 184 187 194 196 198 196 202 195 194 195 193 192 192 188 190 179 192 193 188 193 197 192 195 194 197 193
44 47 43 73 108 99 123 165 172 188 196 200 200 197 197 197 193 191 198 197 196 186 198 181 194 185 195 197 200 193 202 206 196
37 44 42 37 47 63 108 138 137 155 188 202 205 197 201 202 196 187 201 209 200 191 193 197 189 185 198 199 201 195 203 207 209
36 42 33 29 21 17 28 26 346 231 208 190 193 194 203 207 203 202 205 202 196 202 197 199 199 198 201 200 197 200 202 205 207
30 27 22 24 16 5 4 352 349 302 250 225 209 201 201 207 207 206 205 207 200 200 203 208 206 195 202 201 195 202 202 204 212
21 16 10 6 4 354 353 343 323 325 312 272 231 212 213 214 210 204 202 203 204 195 202 211 205 207 206 203 207 197 196 197 208
11 1 352 350 348 339 335 330 312 309 315 293 251 235 218 210 211 211 210 208 203 207 203 198 208 212 209 211 212 199 201 199 210
4 352 338 331 330 328 326 318 304 303 313 330 318 288 226 216 209 219 213 207 209 214 210 204 204 210 211 212 217 202 206 203 211
346 332 322 311 312 311 314 309 308 307 319 346 334 346 288 238 213 220 217 215 214 215 212 211 209 207 206 213 223 203 209 199 215
326 320 313 311 308 307 306 307 310 324 325 327 337 328 298 279 252 228 220 222 219 214 214 216 213 211 209 212 223 205 205 199 220
305 302 309 306 302 298 300 305 309 305 304 340 285 303 298 290 285 267 242 221 215 212 211 219 218 219 216 218 214 221 199 196 211
296 305 307 301 297 295 298 300 299 293 288 273 265 274 285 302 283 274 266 246 215 209 202 206 215 219 225 223 223 214 205 200 203
292 296 295 285 284 288 289 290 278 274 272 259 269 282 271 253 283 291 263 249 237 222 210 215 218 218 222 224 221 222 208 200 205
288 300 291 294 290 294 293 293 287 276 279 243 246 260 280 275 286 281 279 271 238 231 230 219 219 216 222 220 217 217 208 208 208
286 290 292 294 298 295 295 292 284 281 277 252 240 242 255 259 245 251 272 269 269 240 232 229 221 221 215 209 215 214 202 195 204
287 284 284 286 290 293 297 297 285 279 277 246 230 240 252 250 257 261 257 269 275 237 236 264 249 224 215 218 215 190 198 200 202
287 288 290 288 287 287 293 295 289 275 272 230 223 243 252 262 256 259 256 257 263 286 279 253 242 238 241 224 203 190 200 201 200